Regional Weather Roundup
Issued by NWS

Home | Current Version | Previous Version | Graphics & Text | Print | Product List | Glossary Off
Versions: 1 2 3 4 5 6 7 8 9 10 11 12 13 14 15 16 17 18 19 20 21 22 23 24 25 26 27 28 29 30 31 32 33 34 35 36 37 38 39 40 41 42 43 44 45 46 47 48 49 50

000
ASUS43 KMPX 171001
RWRMN
WEATHER ROUNDUP FOR MINNESOTA
NATIONAL WEATHER SERVICE TWIN CITIES/CHANHASSEN MN
500 AM CDT THU APR 17 2014


NOTE: "FAIR" INDICATES FEW OR NO CLOUDS BELOW 12,000 FEET WITH NO
SIGNIFICANT WEATHER AND/OR OBSTRUCTIONS TO VISIBILITY. N/A MEANS
CURRENT SKY AND/OR WEATHER CONDITIONS ARE NOT AVAILABLE.

MNZ060>063-068>070-171100-
   Twin Cities Metro

CITY           SKY/WX    TMP DP  RH WIND       PRES   REMARKS
TWIN CITIES    CLOUDY    29  28  96 N18       30.06R WCI  16
ST PAUL        CLOUDY    30  27  88 N14G23    30.07R WCI  19
CRYSTAL        CLOUDY    29  26  89 N12       30.06R WCI  19
BLAINE         CLOUDY    30  30 100 N14       30.07R WCI  20
EDEN PRAIRIE   CLOUDY    30  27  88 N14G20    30.06R WCI  19
LAKEVILLE      CLOUDY    28  27  93 NW16G23   30.04R WCI  17
SOUTH ST PAUL  CLOUDY    32  31  96 N12G18    30.05R WCI  23
LAKE ELMO      CLOUDY    30  30 100 N10       30.05R WCI  21
$$
MNZ001>005-007-008-013>017-022>024-027-028-171100-
   Northwest Minnesota

CITY           SKY/WX    TMP DP  RH WIND       PRES   REMARKS
BEMIDJI        CLEAR     20   9  61 N6        30.23S WCI  12
HALLOCK        CLOUDY    21  16  79 NW5       30.34S WCI  15
ROSEAU         CLEAR     19  12  73 N6        30.31S WCI  11
WARROAD        CLEAR     21   7  53 N9        30.31S WCI  11
THIEF RVR FALL CLEAR     25   9  50 N9        30.29F WCI  15
CROOKSTON      CLEAR     21  18  86 N5        30.31S WCI  15
FOSSTON        CLEAR     19  12  73 N6        30.27R WCI  11
DETROIT LAKES  CLEAR     23  18  80 NW6       30.24R WCI  16
MOORHEAD       CLEAR     25  23  93 N9        30.28S WCI  15
PARK RAPIDS    CLEAR     22  15  75 N9        30.20R WCI  12
$$
MNZ006-009>011-018-025>026-171100-
   North Central Minnesota

CITY           SKY/WX    TMP DP  RH WIND       PRES   REMARKS
BAUDETTE       CLEAR     18   7  62 N3        30.29R
FLAG ISLAND    CLEAR     18   7  62 N5        30.32R WCI  11
INTL FALLS     CLEAR     21   8  57 NE6       30.26S WCI  13
WASKISH        CLEAR     21   9  58 NE3       30.26S
BIG FORK       CLOUDY    25  16  68 N5        30.23R WCI  19
LONGVILLE      CLOUDY    25  19  80 N3        30.19S
GRAND RAPIDS   CLOUDY    23  18  80 N9        30.18R WCI  13
CRANE LAKE     LGT SNOW  23  16  74 CALM      30.26S
ORR            CLOUDY    25  16  68 CALM      30.19F
COOK           FLURRIES  23  19  86 N6        30.20S WCI  16
$$
MNZ012-019>021-037-171100-
   Northeast Minnesota

CITY           SKY/WX    TMP DP  RH WIND       PRES   REMARKS
DULUTH         LGT SNOW  28  25  88 NE16G25   30.10S BLWGSNOWWCI  16
ELY            LGT SNOW  21  21 100 N7        30.17S WCI  13
HIBBING        CLOUDY    26  20  77 N12       30.17R WCI  16
EVELETH        FLURRIES  27  21  80 N10G16    30.16S WCI  17
DULUTH HARBOR  CLOUDY    30  28  93 NE18G28   30.14R WCI  18
TWO HARBORS    LGT SNOW  28  23  80 NE14G21   30.10S WCI  17
SILVER BAY     LGT SNOW  27  27 100 NE15G23   30.11F WCI  15
GRAND MARAIS     N/A     30  27  88 NE18G26   30.20F WCI  18
G MARAIS ARPRT LGT SNOW  25  19  80 NE16      30.15F WCI  12
$$
MNZ029>031-032-039>041-046>048-054>057-064-171100-
   West Central Minnesota

CITY           SKY/WX    TMP DP  RH WIND       PRES   REMARKS
FERGUS FALLS   CLEAR     21  18  86 NW7       30.24R WCI  13
WHEATON        CLEAR     25  21  86 NW6       30.27S WCI  18
MORRIS         CLEAR     21  18  86 N12       30.21S WCI   9
ALEXANDRIA     CLEAR     23  17  78 N9        30.20R WCI  13
ELBOW LAKE     FAIR      22  18  86 N9        30.22R WCI  11
WADENA         CLEAR     19  16  86 N7        30.20R WCI  10
GLENWOOD       CLEAR     21  18  86 N12       30.19R WCI   9
APPLETON       CLEAR     21  18  86 N12       30.23R WCI   9
BENSON         CLEAR     19  16  86 N7        30.21R WCI  10
ORTONVILLE     FAIR      19  16  86 N9        30.23R WCI   9
MADISON        CLEAR     25  19  80 N10       30.24R WCI  15
WILLMAR        FAIR      23  18  80 N13       30.19R WCI  11
$$
MNZ033>034-036-042>043-049>051-058-059-171100-
   Central Minnesota

CITY           SKY/WX    TMP DP  RH WIND       PRES   REMARKS
ST CLOUD       PTCLDY    25  19  78 N10G20    30.13R WCI  15
SAUK CENTRE    FAIR      21  17  84 N12       30.18R WCI   9
PAYNESVILLE    MOCLDY    22  19  85 N12       30.16R WCI  11
AITKIN         CLOUDY    28  21  74 N12       30.14R WCI  18
PINE RIVER     CLOUDY    25  19  80 N8        30.21S WCI  16
BRAINERD       CLOUDY    29  19  66 N8        30.17R WCI  21
STAPLES        CLOUDY    21  18  86 N10       30.19R WCI  10
LONG PRAIRIE   FAIR      19  16  86 NW9       30.17R WCI   9
LITTLE FALLS   CLOUDY    27  19  74 NW8       30.16R WCI  18
LITCHFIELD     CLOUDY    25  21  86 NW12      30.15R WCI  14
BUFFALO        CLOUDY    28  24  84 NW8       30.12R WCI  20
MAPLE LAKE     CLOUDY    28  25  87 N16       30.13R WCI  16
$$
MNZ037-044-045-052-053-171100-
   East Central Minnesota

CITY           SKY/WX    TMP DP  RH WIND       PRES   REMARKS
PRINCETON      CLOUDY    28  25  86 NW9       30.11R WCI  20
MORA           CLOUDY    30  25  80 N7        30.11R WCI  23
CAMBRIDGE      CLOUDY    30  25  80 N7        30.07R WCI  23
RUSH CITY      CLOUDY    29  27  92 N12       30.08R WCI  20
MOOSE LAKE     CLOUDY    28  25  86 N9        30.09S WCI  20
HINCKLEY       CLOUDY    32  28  86 N12       30.08S WCI  23
CLOQUET        FLURRIES  27  25  93 N7        30.11R WCI  19
MCGREGOR       CLOUDY    27  23  86 N10       30.15R WCI  17
$$
MNZ071>073-080-081-089-090-097-098-171100-
   Southwest Minnesota

CITY           SKY/WX    TMP DP  RH WIND       PRES   REMARKS
MONTEVIDEO     CLEAR     21  18  86 N10       30.22R WCI  10
GRANITE FALLS  CLEAR     22  18  83 NW10      30.21S WCI  11
CANBY          CLEAR     21  18  90 NW9       30.23R WCI  10
MARSHALL       CLEAR     21  16  79 NW10      30.20R WCI  10
REDWOOD FALLS  CLEAR     23  18  81 NW13      30.18R WCI  11
OLIVIA         CLEAR     21  18  86 NW8       30.17R WCI  12
PIPESTONE        N/A     21  18  86 N9        30.18R WCI  11
WINDOM         CLEAR     23  21  93 NW16      30.15R WCI  10
WORTHINGTON    CLEAR     25  16  68 NW16      30.16R WCI  12
JACKSON        CLOUDY    28  23  80 NW22      30.14R WCI  15
TRACY          CLEAR     22  19  89 NW12      30.18S WCI  11
SLAYTON        CLEAR     22  20  93 NW12      30.17R WCI  10
$$
MNZ065>067-074>077-082>085-091>093-171100-
   South Central Minnesota

CITY           SKY/WX    TMP DP  RH WIND       PRES   REMARKS
MANKATO        CLOUDY    30  25  80 NW18G24   30.10R WCI  18
NEW ULM        CLEAR     25  23  93 NW16      30.13R WCI  12
ST JAMES       CLOUDY    28  25  86 NW18      30.14R WCI  16
FAIRMONT       CLOUDY    28  23  80 NW20G26   30.13R WCI  15
GLENCOE        CLOUDY    28  23  79 NW15      30.11R WCI  17
FARIBAULT      CLOUDY    34  28  80 NW13G21   30.06R WCI  25
OWATONNA       CLOUDY    30  28  93 NW21      30.05R FOG     WCI  17
WASECA         CLOUDY    34  32  93 NW20G26   30.08R WCI  22
ALBERT LEA     CLOUDY    30  30 100 NW14G24   30.04R WCI  20
$$
MNZ078>079-086>088-094>096-171100-
   Southeast Minnesota

CITY           SKY/WX    TMP DP  RH WIND       PRES   REMARKS
ROCHESTER      FOG       33  31  92 NW22      29.96R VSB 1   WCI  21
RED WING       CLOUDY    34  32  93 NW8G17    29.99R FOG     WCI  27
STANTON        CLOUDY    31  30  93 N17       30.02R WCI  20
DODGE CENTER   CLOUDY    34  34 100 NW18      29.99R FOG     WCI  23
WINONA         CLOUDY    43  36  75 NW3       29.92R
AUSTIN         CLOUDY    30  28  93 NW17G24   30.01R FOG     WCI  18
PRESTON        CLOUDY    35  34  97 W18G24    29.95R FOG     WCI  24
$$
ABBREVIATIONS USED IN REMARKS
   TC - TEMPERATURES IN CELSIUS
  WCI - WIND CHILL INDEX
   HX - HEAT INDEX
  VSB - VISIBILITY
$$


USA.gov is the U.S. government's official web portal to all federal, state and local government web resources and services.